Date,TemperatureHighF,TemperatureAvgF,TemperatureLowF,DewpointHighF,DewpointAvgF,DewpointLowF,HumidityHigh,HumidityAvg,HumidityLow,PressureMaxIn,PressureMinIn,WindSpeedMaxMPH,WindSpeedAvgMPH,GustSpeedMaxMPH,PrecipitationSumIn
2013-3-1,71.1,57.3,49.5,56.8,47.2,41.4,95,72,37,30.44,30.24,4,1,9,0.00
2013-3-2,71.4,58.3,53.6,52.5,47.1,42.8,82,68,36,30.24,30.09,3,1,9,0.00
2013-3-3,59.2,53.6,50.2,49.6,46.7,44.1,89,78,58,30.12,30.06,7,3,14,0.00
2013-3-4,56.3,50.7,48.0,45.3,42.2,37.6,85,73,50,30.18,30.06,4,2,10,0.00
2013-3-5,58.5,52.2,46.6,48.0,38.9,34.7,88,62,42,30.09,29.85,5,2,14,0.04
2013-3-6,57.0,52.7,48.7,50.2,41.3,34.9,93,67,44,30.09,29.85,5,2,15,0.08
2013-3-7,58.8,50.9,47.1,47.1,41.1,31.6,92,71,36,30.00,29.88,4,1,8,0.00
2013-3-8,57.6,51.5,47.5,47.5,42.3,38.8,93,72,52,30.06,29.85,6,3,17,0.08
2013-3-9,62.4,53.0,46.0,44.1,40.3,35.2,82,63,37,30.33,30.06,5,2,13,0.00
2013-3-10,65.3,54.6,47.1,48.7,42.6,33.1,85,67,35,30.36,30.27,4,1,9,0.00
2013-3-11,70.5,54.8,47.5,50.2,44.2,34.9,90,71,30,30.27,30.12,4,1,11,0.00
2013-3-12,67.6,54.7,49.3,51.3,47.4,43.9,93,78,44,30.18,30.09,5,1,12,0.00
2013-3-13,70.7,56.5,48.0,61.0,48.9,45.1,98,79,43,30.18,30.06,4,1,10,0.00
2013-3-14,61.9,54.6,49.5,50.5,46.8,43.2,96,76,54,30.18,30.09,6,2,11,0.00
2013-3-15,69.1,55.6,49.3,50.0,46.6,40.6,94,73,36,30.15,30.06,5,1,12,0.00
2013-3-16,65.5,55.1,50.0,53.2,46.1,39.6,95,74,45,30.15,30.03,7,2,16,0.00
2013-3-17,66.0,55.1,49.6,44.8,40.4,33.4,74,59,31,30.15,30.06,6,2,12,0.00
2013-3-18,65.7,54.2,48.0,46.9,42.2,36.0,83,66,36,30.12,30.06,6,1,13,0.00
2013-3-19,65.7,55.0,50.2,48.6,42.0,27.3,82,64,31,30.15,30.06,4,1,10,0.04
2013-3-20,61.0,55.3,51.6,57.9,50.8,42.4,98,85,56,30.15,30.06,3,1,8,0.08
2013-3-21,61.5,52.8,46.2,50.5,40.4,34.7,96,65,39,30.15,30.03,5,2,11,0.00
2013-3-22,64.4,54.7,47.1,42.6,35.0,21.7,76,51,21,30.12,30.03,5,2,13,0.00
2013-3-23,71.6,55.0,47.8,41.4,35.7,24.6,73,51,22,30.15,30.06,5,1,13,0.00
2013-3-24,66.0,54.2,48.2,45.3,42.3,39.0,81,66,37,30.09,30.00,5,1,13,0.00
2013-3-25,57.4,51.5,48.4,44.6,42.0,37.6,85,71,48,30.06,29.94,5,2,14,0.00
2013-3-26,60.6,54.2,49.3,47.1,42.9,38.7,83,67,48,30.03,29.94,5,2,11,0.00
2013-3-27,63.5,56.7,51.6,53.4,49.5,46.2,89,77,59,30.03,29.97,4,1,10,0.00
2013-3-28,67.3,58.9,55.2,54.7,51.6,48.0,93,78,51,30.09,30.00,4,1,10,0.00
2013-3-29,76.8,59.0,52.7,57.2,50.2,44.2,94,76,32,30.09,30.03,5,1,10,0.00
2013-3-30,70.9,59.0,53.6,56.1,51.1,40.1,96,78,36,30.09,29.97,4,1,10,0.04
2013-3-31,65.8,58.9,54.7,58.6,53.4,47.5,95,83,54,30.06,30.00,3,1,10,0.48